Location: Kershaw
(34.5481°N, 80.5823°W)
Time: 05:28:25
(UTC+00:00)

Transit 4A - Pass Details

Date: 13 October 2022
Orbit: 871 x 972 km, 66.8° (Epoch: 09 December)

Event Time Altitude Azimuth Distance (km) Brightness Sun altitude
Rises 08:43:53 0° 349° (N) 3,478 11.0 -34.0°
Reaches altitude 10° 08:47:24 10° 10° (N) 2,527 10.4 -33.3°
Maximum altitude 08:51:00 16° 49° (NE) 2,094 10.3 -32.6°
Drops below altitude 10° 08:54:34 10° 87° (E) 2,518 11.0 -31.9°
Sets 08:58:02 0° 108° (ESE) 3,457 11.7 -31.2°
